This demonstration page uses our WeatherBlox Daily Observations layout. Learn more.

Left ArrowRight Arrow

Hourly Observations for September 4, 2018

Temp ( °F °C ) Dew Point ( °F °C ) Humidity (%) Winds ( mph kmh ) Pressure ( in mb ) Visibility ( mi km ) Precip ( " mm )
12:54 am 00:54 Cloudy with Heavy Rain 71 21.7 70 21.1 96 96 SE 8 13 30.02 1017 4 6 0.11 2.79
1:29 am 01:29 Mostly Cloudy with Nearby Thunderstorms 72 22.2 70 21.1 94 94 SSE 12 19 30.03 1017 3 4 0.09 2.29
1:37 am 01:37 Cloudy with Nearby Thunderstorms 71 21.7 69 20.6 94 94 SSE 12 19 30.03 1017 2 2 0.28 7.11
1:51 am 01:51 Cloudy with Nearby Thunderstorms 72 22 70 21 94 94 SSE 8 13 30.03 1017 1 2 0.48 12.19
1:54 am 01:54 Cloudy with Nearby Thunderstorms 71 21.7 69 20.6 94 94 SSE 9 15 30.03 1017 2 3 0.50 12.70
1:58 am 01:58 Cloudy with Nearby Thunderstorms 71 21.7 69 20.6 94 94 SSE 9 15 30.03 1017 2 3 0.05 1.27
2:05 am 02:05 Cloudy with Rain 71 21.7 70 21.1 96 96 S 8 13 30.03 1017 3 5 0.08 2.03
2:16 am 02:16 Cloudy with Heavy Rain 71 21.7 69 20.6 94 94 SSW 6 9 30.03 1017 2 3 0.17 4.32
2:29 am 02:29 Cloudy with Rain 71 21.7 70 21.1 96 96 N N/A 30.00 1016 3 5 0.21 5.33
2:54 am 02:54 Mostly Cloudy with Light Rain 71 21.7 69 20.6 94 94 SE 3 6 30.01 1016 10 16 0.23 5.84
3:17 am 03:17 Cloudy with Light Rain 71 21.7 70 21.1 96 96 ESE 5 7 30.00 1016 7 11 0.01 0.25
3:25 am 03:25 Cloudy with Rain 71 21.7 70 21.1 96 96 SE 6 9 30.03 1017 7 11 0.03 0.76
3:33 am 03:33 Cloudy with Rain 71 21.7 70 21.1 96 96 SSE 5 7 30.00 1016 5 8 0.05 1.27
3:54 am 03:54 Cloudy with Rain 71 21.7 70 21.1 96 96 SE 5 7 30.01 1016 7 11 0.06 1.52
4:02 am 04:02 Cloudy with Rain 71 21.7 70 21.1 96 96 E 6 9 30.00 1016 4 6 0.02 0.51
4:09 am 04:09 Cloudy with Light Rain 71 21.7 70 21.1 96 96 E 6 9 30.00 1016 7 11 0.03 0.76
4:54 am 04:54 Cloudy 71 21.7 70 21.1 96 96 ESE 3 6 30.00 1016 10 16 0.03 0.76
5:54 am 05:54 Partly Cloudy 71 21.7 69 20.6 94 94 ESE 3 6 29.99 1016 10 16 N/A
6:47 am 06:47 Cloudy with Heavy Rain 71 21.7 69 20.6 94 94 SE 3 6 30.00 1016 4 6 0.02 0.51
6:54 am 06:54 Cloudy with Rain 71 21.7 69 20.6 94 94 SE 5 7 29.99 1016 4 6 0.05 1.27
7:21 am 07:21 Cloudy with Light Rain 72 22.2 69 20.6 91 91 SE 8 13 30.00 1016 8 13 0.06 1.52
7:54 am 07:54 Cloudy with Light Rain 72 22.2 70 21.1 94 94 SE 8 13 29.99 1016 3 5 0.07 1.78
8:06 am 08:06 Cloudy with Rain 72 22.2 70 21.1 94 94 SSE 9 15 30.00 1016 3 4 0.01 0.25
8:17 am 08:17 Cloudy with Heavy Rain 72 22.2 70 21.1 94 94 SSE 9 15 30.00 1016 2 2 0.05 1.27
8:38 am 08:38 Cloudy with Heavy Rain 72 22.2 69 20.6 91 91 SSE 14 22 30.00 1016 2 3 0.19 4.83
8:50 am 08:50 Cloudy with Heavy Rain 72 22 70 21 94 94 SSE 14 22 29.97 1015 2 3 0.25 6.35
8:54 am 08:54 Cloudy with Heavy Rain 71 21.7 69 20.6 94 94 SSE 14 22 29.98 1015 3 4 0.27 6.86
9:37 am 09:37 Cloudy with Light Rain 72 22.2 70 21.1 94 94 SE 9 15 29.97 1015 4 6 0.13 3.30
9:54 am 09:54 Cloudy with Light Rain 73 22.8 70 21.1 90 90 SE 8 13 29.98 1015 6 10 0.14 3.56
10:29 am 10:29 Cloudy with Rain 73 22.8 71 21.7 94 94 SSE 7 11 29.97 1015 3 4 0.03 0.76
10:37 am 10:37 Cloudy with Rain 73 22.8 71 21.7 94 94 SSE 9 15 29.97 1015 3 5 0.04 1.02
10:41 am 10:41 Cloudy with Rain 73 22.8 71 21.7 94 94 SSE 9 15 30.00 1016 3 4 0.05 1.27
10:52 am 10:52 Cloudy with Light Rain 73 23 72 22 94 94 SSE 9 15 30.00 1016 4 6 0.07 1.78
10:54 am 10:54 Cloudy with Rain 73 22.8 71 21.7 94 94 SSE 9 15 29.99 1016 4 6 0.07 1.78
11:08 am 11:08 Cloudy with Light Rain 74 23.3 72 22.2 94 94 SSE 9 15 30.00 1016 4 6 0.01 0.25
11:18 am 11:18 Cloudy with Rain 74 23.3 72 22.2 94 94 SSE 9 15 30.00 1016 3 5 0.02 0.51
11:24 am 11:24 Cloudy with Heavy Rain 73 22.8 72 22.2 96 96 SSE 8 13 30.00 1016 2 3 0.05 1.27
11:54 am 11:54 Cloudy with Rain 74 23.3 72 22.2 94 94 SE 6 9 29.98 1015 2 3 0.16 4.06
11:59 am 11:59 Cloudy with Rain 74 23.3 72 22.2 94 94 SE 7 11 29.97 1015 2 3 0.02 0.51
12:06 pm 12:06 Cloudy with Rain 73 22.8 72 22.2 96 96 SSE 7 11 29.97 1015 2 3 0.03 0.76
12:14 pm 12:14 Cloudy with Rain 74 23.3 72 22.2 94 94 SSE 8 13 29.97 1015 2 3 0.06 1.52
12:22 pm 12:22 Cloudy with Heavy Rain 74 23.3 72 22.2 94 94 SSE 8 13 29.97 1015 2 3 0.10 2.54
12:28 pm 12:28 Cloudy with Rain 74 23.3 72 22.2 94 94 SSE 7 11 29.97 1015 2 3 0.12 3.05
12:38 pm 12:38 Cloudy with Rain 74 23.3 72 22.2 94 94 SSE 9 15 29.97 1015 3 4 0.15 3.81
12:45 pm 12:45 Cloudy with Rain 74 23.3 72 22.2 94 94 SSE 8 13 29.97 1015 3 4 0.16 4.06
12:54 pm 12:54 Cloudy with Rain 74 23.3 72 22.2 94 94 SSE 9 15 29.97 1015 3 4 0.19 4.83
1:04 pm 13:04 Cloudy with Heavy Rain 73 22.8 71 21.7 94 94 SSE 14 22 29.97 1015 2 3 0.04 1.02
1:11 pm 13:11 Cloudy with Heavy Rain 73 22.8 71 21.7 94 94 SSE 13 20 29.97 1015 3 4 0.07 1.78
1:17 pm 13:17 Cloudy with Rain 73 22.8 71 21.7 94 94 S 10 17 29.97 1015 3 5 0.10 2.54
1:26 pm 13:26 Cloudy with Rain 73 22.8 71 21.7 94 94 S 8 13 29.97 1015 3 4 0.12 3.05
1:46 pm 13:46 Cloudy with Rain 73 22.8 71 21.7 94 94 S 9 15 29.97 1015 3 4 0.20 5.08
1:50 pm 13:50 Cloudy with Heavy Rain 73 23 72 22 94 94 S 7 11 29.97 1015 2 3 0.22 5.59
1:54 pm 13:54 Cloudy with Heavy Rain 73 22.8 71 21.7 94 94 S 7 11 29.96 1015 2 3 0.24 6.10
2:08 pm 14:08 Cloudy with Rain 73 22.8 71 21.7 94 94 S 8 13 29.94 1014 3 4 0.07 1.78
2:24 pm 14:24 Cloudy with Rain 74 23.3 72 22.2 94 94 SSE 10 17 29.91 1013 3 5 0.12 3.05
2:45 pm 14:45 Cloudy with Light Rain 74 23.3 72 22.2 94 94 S 10 17 29.91 1013 10 16 0.14 3.56
2:54 pm 14:54 Cloudy 74 23.3 72 22.2 94 94 S 10 17 29.93 1014 10 16 0.14 3.56
3:13 pm 15:13 Cloudy 75 23.9 72 22.2 90 90 S 9 15 29.88 1012 8 13 N/A
3:37 pm 15:37 Cloudy 76 24.4 74 23.3 94 94 S 5 7 29.88 1012 10 16 N/A
3:44 pm 15:44 Cloudy 76 24.4 73 22.8 91 91 SSE 6 9 29.88 1012 10 16 N/A
3:54 pm 15:54 Cloudy 76 24.4 73 22.8 91 91 S 8 13 29.91 1013 10 16 N/A
3:57 pm 15:57 Cloudy 76 24.4 72 22.2 88 88 S 8 13 29.88 1012 10 16 N/A
4:54 pm 16:54 Cloudy 77 25 72 22.2 85 85 SSE 12 19 29.89 1012 10 16 N/A
5:12 pm 17:12 Cloudy 77 25 72 22.2 85 85 S 12 19 29.85 1011 10 16 N/A
5:20 pm 17:20 Cloudy 76 24.4 72 22.2 88 88 SSE 9 15 29.85 1011 10 16 N/A
5:34 pm 17:34 Mostly Cloudy 77 25 73 22.8 88 88 SSE 9 15 29.85 1011 10 16 N/A
5:54 pm 17:54 Mostly Cloudy 78 25.6 73 22.8 85 85 SSE 10 17 29.89 1012 10 16 N/A
6:54 pm 18:54 Mostly Cloudy 77 25 73 22.8 88 88 S 7 11 29.90 1012 10 16 N/A
7:54 pm 19:54 Mostly Sunny 75 23.9 73 22.8 94 94 S 8 13 29.90 1013 10 16 N/A
8:54 pm 20:54 Clear 75 23.9 72 22.2 90 90 S 6 9 29.93 1014 10 16 N/A
9:54 pm 21:54 Clear 77 25 73 22.8 88 88 S 9 15 29.93 1014 10 16 N/A
10:54 pm 22:54 Mostly Cloudy 75 23.9 72 22.2 90 90 SSW 8 13 29.96 1014 10 16 N/A
11:10 pm 23:10 Cloudy 75 23.9 72 22.2 90 90 SSW 7 11 29.94 1014 10 16 N/A
11:43 pm 23:43 Partly Cloudy 75 23.9 72 22.2 90 90 SSW 8 13 29.94 1014 10 16 N/A
11:54 pm 23:54 Mostly Cloudy 75 23.9 72 22.2 90 90 WSW 7 11 29.97 1015 10 16 N/A

Powered by AerisWeather